This is the latest recevied weather packets stored in our database for station/object KGRR-WX. If no packets are shown the sender has not sent any weather packets the latest 10 day(s).
| Time | Temp. | Humidity | Pressure | Rain* | Wind** | Luminosity | Snow |
|---|---|---|---|---|---|---|---|
| 1777870826 | 8.89° C | 73% | 977.7 hPa | 0 mm | - | - | - |
| 1777869905 | 8.89° C | 71% | 978.1 hPa | 0 mm | - | - | - |
| 1777869024 | 8.89° C | 71% | 977.9 hPa | 0 mm | - | - | - |
| 1777868106 | 8.89° C | 71% | 977.9 hPa | 0 mm | - | - | - |
| 1777867227 | 8.89° C | 71% | 977.9 hPa | 0 mm | - | - | - |
| 1777866305 | 8.89° C | 71% | 978.5 hPa | 0 mm | - | - | - |
| 1777865422 | 8.89° C | 72% | 978.9 hPa | 0 mm | - | - | - |
| 1777864506 | 8.89° C | 72% | 978.9 hPa | 0 mm | - | - | - |
| 1777863624 | 9.44° C | 72% | 978.9 hPa | 0 mm | - | - | - |
| 1777862706 | 9.44° C | 64% | 978.8 hPa | 0 mm | - | - | - |
| 1777861814 | 9.44° C | 69% | 978.8 hPa | 0 mm | - | - | - |
| 1777860905 | 9.44° C | 69% | 978.8 hPa | 0 mm | - | - | - |
| 1777860024 | 9.44° C | 69% | 978.8 hPa | 0 mm | - | - | - |
| 1777859106 | 10° C | 68% | 979.6 hPa | 0 mm | - | - | - |
| 1777858221 | 10° C | 68% | 979.6 hPa | 0 mm | - | - | - |
| 1777857304 | 10° C | 68% | 979.6 hPa | 0 mm | - | - | - |
| 1777856426 | 10° C | 68% | 979.6 hPa | 0 mm | - | - | - |
| 1777855505 | 10.56° C | 62% | 980.1 hPa | 0 mm | - | - | - |
| 1777854621 | 11.11° C | 66% | 980.4 hPa | 0 mm | - | - | - |
| 1777853705 | 11.11° C | 66% | 980.4 hPa | 0 mm | - | - | - |
| 1777852823 | 11.67° C | 66% | 980.4 hPa | 0 mm | - | - | - |
| 1777851905 | 12.22° C | 56% | 981.2 hPa | 0 mm | - | - | - |
| 1777851022 | 12.22° C | 50% | 980.5 hPa | 0 mm | - | - | - |
| 1777850105 | 13.33° C | 50% | 980.6 hPa | 0 mm | - | - | - |
| 1777849223 | 13.89° C | 50% | 980.6 hPa | 0 mm | - | - | - |
* Rain latest hour (hover to see other rain measurements)
** Current wind speed in m/s (hover to see current wind gust speed)